Regional Weather Roundup
Issued by NWS Cleveland, OH

Home | Current Version | Previous Version | Graphics & Text | Print | Product List | Glossary On
Versions: 1 2 3 4 5 6 7 8 9 10 11 12 13 14 15 16 17 18 19 20 21 22 23 24 25 26 27 28 29 30 31 32 33 34 35 36 37 38 39 40 41 42 43 44 45 46 47 48 49 50
000
ASUS41 KCLE 211402
RWRCLE
OHIO REGIONAL WEATHER ROUNDUP
NATIONAL WEATHER SERVICE CLEVELAND, OH
900 AM EST SAT JAN 21 2017

NOTE: "FAIR" INDICATES FEW OR NO CLOUDS BELOW 12,000 FEET WITH NO
SIGNIFICANT WEATHER AND/OR OBSTRUCTIONS TO VISIBILITY.

OHZ001>008-015>018-024>027-034-035-043-044-211500-
   NORTHWEST OHIO

CITY           SKY/WX    TMP DP  RH WIND       PRES   REMARKS
DEFIANCE       PTCLDY    47  45  93 S7        29.67F
FINDLAY        PTCLDY    49  45  86 S8        29.68F
TOLEDO EXPRESS CLEAR     46  46 100 S3        29.67F
TOLEDO EXEC    PTCLDY    47  46  97 S6        29.69F FOG
LIMA           PTCLDY    48  47  96 SE9       29.68F
$$

OHZ009>014-019>023-028>033-038-089-211500-
   NORTHEAST OHIO

CITY           SKY/WX    TMP DP  RH WIND       PRES   REMARKS
CLE-HOPKINS    MOSUNNY   51  46  83 SE9       29.74F
CLE-LAKEFRONT  SUNNY     51  47  86 SE13      29.72S
CUY CO. ARPT   MOSUNNY   52  48  87 S14       29.74F
LORAIN-ELYRIA  MOSUNNY   49  45  86 S12       29.72F
ASHTABULA      SUNNY     47  47 100 SE7       29.76F
AKRON-CANTON   MOSUNNY   47  45  93 S7        29.75F FOG
WOOSTER        SUNNY     44  43  96 SE6       29.75S FOG
MANSFIELD      SUNNY     49  48  97 S9        29.72F
YOUNGSTOWN     FOG       45  44  97 SE8       29.77F VSB 1/8
$$

OHZ042-051>053-060>062-070>072-077>081-211500-
  SOUTHWEST OHIO

CITY           SKY/WX    TMP DP  RH WIND       PRES   REMARKS
CINC-COVINGTON PTSUNNY   52  49  89 S9        29.71R
CINC-LUNKEN    SUNNY     43  43 100 CALM      29.73S
HAMILTON       SUNNY     49  48  97 E5        29.72R
DAYTON         PTSUNNY   50  47  89 S9        29.71S
WRIGHT-PAT AFB MOSUNNY   48  48 100 SE6       29.72R
DAYTON GENERAL NOT AVBL
WILMINGTON     SUNNY     52  48  86 S7        29.73S
$$

OHZ036-037-039>041-045>050-054>059-063>069-073>076-082>088-211500-
  CENTRAL AND SOUTHEAST OHIO

CITY           SKY/WX    TMP DP  RH WIND       PRES   REMARKS
COLUMBUS       MOSUNNY   51  47  86 SE6       29.73F
OSU AIRPORT    SUNNY     49  48  97 SE6       29.73S
BOLTON FIELD   SUNNY     48  46  93 S8        29.73F
RICKENBACK AFB NOT AVBL
NEWARK         FOG       40  39  97 CALM      29.74F VSB 1/4
MARION         MOSUNNY   49  46  90 S8        29.72F
LANCASTER      SUNNY     50  47  89 SE8       29.75F
ZANESVILLE     PTSUNNY   46  45  96 CALM      29.77S FOG
NEW PHILLY     NOT AVBL
$$



USA.gov is the U.S. government's official web portal to all federal, state and local government web resources and services.